Time,TemperatureF,DewpointF,PressureIn,WindDirection,WindDirectionDegrees,WindSpeedMPH,WindSpeedGustMPH,Humidity,HourlyPrecipIn,Conditions,Clouds,dailyrainin,SoftwareType,DateUTC
2013-01-03 00:02:00,1.0,-5.6,29.17,East,82,0.0,0.0,73,0.00,,,0.00,Weather View 32 v70,2013-01-03 09:02:00,
2013-01-03 00:07:00,1.1,-5.2,29.17,East,82,0.0,0.0,74,0.00,,,0.00,Weather View 32 v70,2013-01-03 09:07:00,
2013-01-03 00:12:00,1.4,-4.9,29.17,East,82,0.0,0.0,74,0.00,,,0.00,Weather View 32 v70,2013-01-03 09:12:00,
2013-01-03 00:17:00,1.6,-5.0,29.17,East,82,0.0,0.0,73,0.00,,,0.00,Weather View 32 v70,2013-01-03 09:17:00,
2013-01-03 00:22:00,1.6,-5.0,29.17,East,82,0.0,0.0,73,0.00,,,0.00,Weather View 32 v70,2013-01-03 09:22:00,
2013-01-03 00:27:00,1.7,-4.9,29.17,East,82,0.0,0.0,73,0.00,,,0.00,Weather View 32 v70,2013-01-03 09:27:00,
2013-01-03 00:32:00,1.8,-4.8,29.18,East,82,0.0,0.0,73,0.00,,,0.00,Weather View 32 v70,2013-01-03 09:32:00,
2013-01-03 00:37:00,1.9,-4.7,29.18,East,82,0.0,0.0,73,0.00,,,0.00,Weather View 32 v70,2013-01-03 09:37:00,
2013-01-03 00:42:00,1.9,-4.7,29.18,East,82,0.0,0.0,73,0.00,,,0.00,Weather View 32 v70,2013-01-03 09:42:00,
2013-01-03 00:47:00,2.1,-4.3,29.18,East,82,0.0,0.0,74,0.00,,,0.00,Weather View 32 v70,2013-01-03 09:47:00,
2013-01-03 00:52:00,2.2,-4.2,29.18,East,82,0.0,0.0,74,0.00,,,0.00,Weather View 32 v70,2013-01-03 09:52:00,
2013-01-03 00:57:00,2.3,-4.1,29.18,East,82,0.0,0.0,74,0.00,,,0.00,Weather View 32 v70,2013-01-03 09:57:00,
2013-01-03 01:02:00,2.2,-4.5,29.18,East,82,0.0,0.0,73,0.00,,,0.00,Weather View 32 v70,2013-01-03 10:02:00,
2013-01-03 01:07:00,2.1,-4.6,29.18,East,82,0.0,0.0,73,0.00,,,0.00,Weather View 32 v70,2013-01-03 10:07:00,
2013-01-03 01:12:00,2.2,-4.5,29.18,East,82,0.0,0.0,73,0.00,,,0.00,Weather View 32 v70,2013-01-03 10:12:00,
2013-01-03 01:17:00,2.3,-4.1,29.18,East,83,0.0,0.0,74,0.00,,,0.00,Weather View 32 v70,2013-01-03 10:17:00,
2013-01-03 01:22:00,2.3,-4.4,29.18,East,82,0.0,0.0,73,0.00,,,0.00,Weather View 32 v70,2013-01-03 10:22:00,
2013-01-03 01:27:00,2.3,-4.4,29.18,East,82,0.0,0.0,73,0.00,,,0.00,Weather View 32 v70,2013-01-03 10:27:00,
2013-01-03 01:32:00,2.2,-4.5,29.18,East,82,1.0,2.0,73,0.00,,,0.00,Weather View 32 v70,2013-01-03 10:32:00,
2013-01-03 01:37:00,2.7,-3.4,29.18,East,82,0.0,2.0,75,0.00,,,0.00,Weather View 32 v70,2013-01-03 10:37:00,
2013-01-03 01:42:00,3.0,-3.1,29.19,East,82,0.0,2.0,75,0.00,,,0.00,Weather View 32 v70,2013-01-03 10:42:00,
2013-01-03 01:47:00,2.8,-3.6,29.19,East,82,0.0,2.0,74,0.00,,,0.00,Weather View 32 v70,2013-01-03 10:47:00,
2013-01-03 01:52:00,2.8,-3.6,29.18,East,82,0.0,2.0,74,0.00,,,0.00,Weather View 32 v70,2013-01-03 10:52:00,
2013-01-03 01:57:00,2.8,-3.6,29.18,East,82,0.0,2.0,74,0.00,,,0.00,Weather View 32 v70,2013-01-03 10:57:00,
2013-01-03 02:02:00,2.7,-3.7,29.18,East,82,0.0,2.0,74,0.00,,,0.00,Weather View 32 v70,2013-01-03 11:02:00,
2013-01-03 02:07:00,2.6,-3.8,29.18,East,82,0.0,2.0,74,0.00,,,0.00,Weather View 32 v70,2013-01-03 11:07:00,
2013-01-03 02:12:00,2.8,-3.6,29.18,East,83,0.0,2.0,74,0.00,,,0.00,Weather View 32 v70,2013-01-03 11:12:00,
2013-01-03 02:17:00,2.6,-3.8,29.18,East,82,0.0,2.0,74,0.00,,,0.00,Weather View 32 v70,2013-01-03 11:17:00,
2013-01-03 02:22:00,2.4,-4.3,29.18,East,82,0.0,2.0,73,0.00,,,0.00,Weather View 32 v70,2013-01-03 11:22:00,
2013-01-03 02:27:00,2.4,-4.3,29.18,East,82,1.0,2.0,73,0.00,,,0.00,Weather View 32 v70,2013-01-03 11:27:00,
2013-01-03 02:32:00,2.8,-3.6,29.18,East,82,1.0,2.0,74,0.00,,,0.00,Weather View 32 v70,2013-01-03 11:32:00,
2013-01-03 02:37:00,3.0,-3.4,29.18,East,82,0.0,2.0,74,0.00,,,0.00,Weather View 32 v70,2013-01-03 11:37:00,
2013-01-03 02:42:00,3.0,-3.4,29.18,East,82,0.0,2.0,74,0.00,,,0.00,Weather View 32 v70,2013-01-03 11:42:00,
2013-01-03 02:47:00,2.8,-3.9,29.18,East,82,0.0,2.0,73,0.00,,,0.00,Weather View 32 v70,2013-01-03 11:47:00,
2013-01-03 02:52:00,2.8,-3.6,29.18,East,82,0.0,2.0,74,0.00,,,0.00,Weather View 32 v70,2013-01-03 11:52:00,
2013-01-03 02:57:00,2.9,-3.5,29.18,East,82,0.0,2.0,74,0.00,,,0.00,Weather View 32 v70,2013-01-03 11:57:00,
2013-01-03 03:02:00,3.0,-3.4,29.18,East,82,0.0,2.0,74,0.00,,,0.00,Weather View 32 v70,2013-01-03 12:02:00,
2013-01-03 03:07:00,3.1,-3.3,29.18,East,82,0.0,2.0,74,0.00,,,0.00,Weather View 32 v70,2013-01-03 12:07:00,
2013-01-03 03:12:00,3.3,-2.8,29.18,East,82,0.0,2.0,75,0.00,,,0.00,Weather View 32 v70,2013-01-03 12:12:00,
2013-01-03 03:17:00,3.3,-3.1,29.18,East,82,0.0,2.0,74,0.00,,,0.00,Weather View 32 v70,2013-01-03 12:17:00,
2013-01-03 03:22:00,3.6,-2.5,29.19,East,83,1.0,4.0,75,0.00,,,0.00,Weather View 32 v70,2013-01-03 12:22:00,
2013-01-03 03:27:00,4.1,-1.8,29.18,East,83,2.0,4.0,76,0.00,,,0.00,Weather View 32 v70,2013-01-03 12:27:00,
2013-01-03 03:32:00,4.3,-1.6,29.18,East,83,0.0,4.0,76,0.00,,,0.00,Weather View 32 v70,2013-01-03 12:32:00,
2013-01-03 03:37:00,4.6,-1.3,29.19,East,83,0.0,4.0,76,0.00,,,0.00,Weather View 32 v70,2013-01-03 12:37:00,
2013-01-03 03:42:00,4.8,-1.1,29.18,East,83,0.0,4.0,76,0.00,,,0.00,Weather View 32 v70,2013-01-03 12:42:00,
2013-01-03 03:47:00,4.8,-1.1,29.19,East,83,0.0,4.0,76,0.00,,,0.00,Weather View 32 v70,2013-01-03 12:47:00,
2013-01-03 03:52:00,4.9,-1.0,29.19,East,83,0.0,4.0,76,0.00,,,0.00,Weather View 32 v70,2013-01-03 12:52:00,
2013-01-03 03:57:00,4.9,-1.0,29.18,East,83,0.0,4.0,76,0.00,,,0.00,Weather View 32 v70,2013-01-03 12:57:00,
2013-01-03 04:02:00,4.9,-1.3,29.18,East,83,0.0,4.0,75,0.00,,,0.00,Weather View 32 v70,2013-01-03 13:02:00,
2013-01-03 04:07:00,5.1,-0.8,29.19,East,83,1.0,4.0,76,0.00,,,0.00,Weather View 32 v70,2013-01-03 13:07:00,
2013-01-03 04:12:00,5.4,-0.5,29.19,East,83,0.0,4.0,76,0.00,,,0.00,Weather View 32 v70,2013-01-03 13:12:00,
2013-01-03 04:17:00,5.6,-0.3,29.18,East,83,0.0,4.0,76,0.00,,,0.00,Weather View 32 v70,2013-01-03 13:17:00,
2013-01-03 04:22:00,5.5,-0.4,29.19,East,83,0.0,2.0,76,0.00,,,0.00,Weather View 32 v70,2013-01-03 13:22:00,
2013-01-03 04:27:00,5.5,-0.4,29.19,East,83,0.0,2.0,76,0.00,,,0.00,Weather View 32 v70,2013-01-03 13:27:00,
2013-01-03 04:30:00,5.5,-0.4,29.19,East,83,0.0,2.0,76,0.00,,,0.00,Weather View 32 v70,2013-01-03 13:30:00,
2013-01-03 04:32:00,5.5,-0.7,29.19,East,83,0.0,2.0,75,0.00,,,0.00,Weather View 32 v70,2013-01-03 13:32:00,
2013-01-03 04:37:00,5.4,-0.8,29.19,East,83,0.0,2.0,75,0.00,,,0.00,Weather View 32 v70,2013-01-03 13:37:00,
2013-01-03 04:42:00,5.4,-0.8,29.19,East,83,0.0,2.0,75,0.00,,,0.00,Weather View 32 v70,2013-01-03 13:42:00,
2013-01-03 04:47:00,5.3,-0.9,29.19,East,83,0.0,2.0,75,0.00,,,0.00,Weather View 32 v70,2013-01-03 13:47:00,
2013-01-03 04:52:00,5.3,-0.9,29.19,East,83,0.0,2.0,75,0.00,,,0.00,Weather View 32 v70,2013-01-03 13:52:00,
2013-01-03 04:57:00,5.3,-0.9,29.19,East,83,0.0,2.0,75,0.00,,,0.00,Weather View 32 v70,2013-01-03 13:57:00,
2013-01-03 05:02:00,5.1,-1.4,29.19,East,83,0.0,2.0,74,0.00,,,0.00,Weather View 32 v70,2013-01-03 14:02:00,
2013-01-03 05:07:00,4.9,-1.6,29.19,East,83,0.0,2.0,74,0.00,,,0.00,Weather View 32 v70,2013-01-03 14:07:00,
2013-01-03 05:12:00,4.6,-1.8,29.19,East,83,0.0,1.0,74,0.00,,,0.00,Weather View 32 v70,2013-01-03 14:12:00,
2013-01-03 05:17:00,4.6,-1.8,29.19,East,83,0.0,0.0,74,0.00,,,0.00,Weather View 32 v70,2013-01-03 14:17:00,
2013-01-03 05:22:00,4.5,-1.9,29.19,East,83,0.0,0.0,74,0.00,,,0.00,Weather View 32 v70,2013-01-03 14:22:00,
2013-01-03 05:27:00,4.4,-2.0,29.19,East,83,0.0,0.0,74,0.00,,,0.00,Weather View 32 v70,2013-01-03 14:27:00,
2013-01-03 05:30:00,4.5,-1.9,29.19,East,83,0.0,0.0,74,0.00,,,0.00,Weather View 32 v70,2013-01-03 14:30:00,
2013-01-03 05:32:00,4.4,-2.0,29.19,East,83,0.0,0.0,74,0.00,,,0.00,Weather View 32 v70,2013-01-03 14:32:00,
2013-01-03 05:37:00,4.5,-1.7,29.19,East,83,0.0,0.0,75,0.00,,,0.00,Weather View 32 v70,2013-01-03 14:37:00,
2013-01-03 05:42:00,4.6,-1.6,29.19,East,83,0.0,0.0,75,0.00,,,0.00,Weather View 32 v70,2013-01-03 14:42:00,
2013-01-03 05:47:00,4.8,-1.1,29.19,East,83,0.0,0.0,76,0.00,,,0.00,Weather View 32 v70,2013-01-03 14:47:00,
2013-01-03 05:52:00,4.8,-1.4,29.19,East,83,0.0,0.0,75,0.00,,,0.00,Weather View 32 v70,2013-01-03 14:52:00,
2013-01-03 05:57:00,4.8,-1.1,29.19,East,83,0.0,0.0,76,0.00,,,0.00,Weather View 32 v70,2013-01-03 14:57:00,
2013-01-03 06:02:00,5.0,-0.9,29.19,East,83,0.0,0.0,76,0.00,,,0.00,Weather View 32 v70,2013-01-03 15:02:00,
2013-01-03 06:07:00,5.0,-1.2,29.19,East,83,0.0,0.0,75,0.00,,,0.00,Weather View 32 v70,2013-01-03 15:07:00,
2013-01-03 06:12:00,5.0,-0.9,29.19,East,83,0.0,0.0,76,0.00,,,0.00,Weather View 32 v70,2013-01-03 15:12:00,
2013-01-03 06:17:00,5.1,-0.8,29.19,East,83,0.0,0.0,76,0.00,,,0.00,Weather View 32 v70,2013-01-03 15:17:00,
2013-01-03 06:22:00,5.2,-0.7,29.20,East,83,0.0,0.0,76,0.00,,,0.00,Weather View 32 v70,2013-01-03 15:22:00,
2013-01-03 06:27:00,5.1,-1.1,29.20,East,83,0.0,0.0,75,0.00,,,0.00,Weather View 32 v70,2013-01-03 15:27:00,
2013-01-03 06:30:00,5.2,-0.7,29.20,East,83,0.0,0.0,76,0.00,,,0.00,Weather View 32 v70,2013-01-03 15:30:00,
2013-01-03 06:32:00,5.0,-1.2,29.19,East,83,0.0,0.0,75,0.00,,,0.00,Weather View 32 v70,2013-01-03 15:32:00,
2013-01-03 06:38:00,5.0,-1.2,29.19,East,83,0.0,0.0,75,0.00,,,0.00,Weather View 32 v70,2013-01-03 15:38:00,
2013-01-03 06:43:00,5.1,-1.1,29.19,East,83,0.0,0.0,75,0.00,,,0.00,Weather View 32 v70,2013-01-03 15:43:00,
2013-01-03 06:48:00,5.1,-1.1,29.20,East,83,0.0,0.0,75,0.00,,,0.00,Weather View 32 v70,2013-01-03 15:48:00,
2013-01-03 06:53:00,5.2,-0.7,29.20,East,83,0.0,0.0,76,0.00,,,0.00,Weather View 32 v70,2013-01-03 15:53:00,
2013-01-03 06:58:00,5.2,-1.0,29.20,East,83,0.0,1.0,75,0.00,,,0.00,Weather View 32 v70,2013-01-03 15:58:00,
2013-01-03 07:03:00,5.2,-1.0,29.19,East,83,1.0,2.0,75,0.00,,,0.00,Weather View 32 v70,2013-01-03 16:03:00,
2013-01-03 07:08:00,5.1,-1.1,29.20,East,83,0.0,2.0,75,0.00,,,0.00,Weather View 32 v70,2013-01-03 16:08:00,
2013-01-03 07:13:00,5.0,-1.2,29.20,East,83,0.0,2.0,75,0.00,,,0.00,Weather View 32 v70,2013-01-03 16:13:00,
2013-01-03 07:18:00,5.2,-0.7,29.20,East,83,0.0,2.0,76,0.00,,,0.00,Weather View 32 v70,2013-01-03 16:18:00,
2013-01-03 07:23:00,5.5,-0.4,29.20,East,83,0.0,2.0,76,0.00,,,0.00,Weather View 32 v70,2013-01-03 16:23:00,
2013-01-03 07:28:00,5.4,-0.8,29.20,East,83,0.0,2.0,75,0.00,,,0.00,Weather View 32 v70,2013-01-03 16:28:00,
2013-01-03 07:30:00,5.5,-0.4,29.20,East,83,0.0,2.0,76,0.00,,,0.00,Weather View 32 v70,2013-01-03 16:30:00,
2013-01-03 07:33:00,5.4,-0.5,29.21,East,83,0.0,2.0,76,0.00,,,0.00,Weather View 32 v70,2013-01-03 16:33:00,
2013-01-03 07:37:00,5.3,-0.9,29.21,East,83,0.0,2.0,75,0.00,,,0.00,Weather View 32 v70,2013-01-03 16:37:00,
2013-01-03 07:42:00,5.3,-0.9,29.21,East,83,0.0,2.0,75,0.00,,,0.00,Weather View 32 v70,2013-01-03 16:42:00,
2013-01-03 07:47:00,5.4,-0.8,29.21,East,83,0.0,2.0,75,0.00,,,0.00,Weather View 32 v70,2013-01-03 16:47:00,
2013-01-03 07:52:00,5.5,-0.7,29.21,East,83,0.0,2.0,75,0.00,,,0.00,Weather View 32 v70,2013-01-03 16:52:00,
2013-01-03 07:57:00,5.6,-0.3,29.21,East,83,0.0,2.0,76,0.00,,,0.00,Weather View 32 v70,2013-01-03 16:57:00,
2013-01-03 08:02:00,5.6,-0.3,29.21,East,83,0.0,2.0,76,0.00,,,0.00,Weather View 32 v70,2013-01-03 17:02:00,
2013-01-03 08:07:00,5.7,-0.2,29.22,East,83,0.0,1.0,76,0.00,,,0.00,Weather View 32 v70,2013-01-03 17:07:00,
2013-01-03 08:12:00,5.9,0.0,29.21,East,83,0.0,1.0,76,0.00,,,0.00,Weather View 32 v70,2013-01-03 17:12:00,
2013-01-03 08:17:00,6.0,0.1,29.21,East,83,0.0,1.0,76,0.00,,,0.00,Weather View 32 v70,2013-01-03 17:17:00,
2013-01-03 08:22:00,6.2,0.5,29.22,East,83,0.0,1.0,77,0.00,,,0.00,Weather View 32 v70,2013-01-03 17:22:00,
2013-01-03 08:27:00,6.5,0.8,29.21,East,83,0.0,0.0,77,0.00,,,0.00,Weather View 32 v70,2013-01-03 17:27:00,
2013-01-03 08:30:00,6.2,0.5,29.22,East,83,0.0,1.0,77,0.00,,,0.00,Weather View 32 v70,2013-01-03 17:30:00,
2013-01-03 08:32:00,6.6,0.9,29.22,East,83,0.0,0.0,77,0.00,,,0.00,Weather View 32 v70,2013-01-03 17:32:00,
2013-01-03 08:37:00,6.6,0.9,29.22,East,83,0.0,0.0,77,0.00,,,0.00,Weather View 32 v70,2013-01-03 17:37:00,
2013-01-03 08:42:00,6.9,1.5,29.22,East,83,0.0,0.0,78,0.00,,,0.00,Weather View 32 v70,2013-01-03 17:42:00,
2013-01-03 08:47:00,7.1,1.7,29.22,East,83,0.0,0.0,78,0.00,,,0.00,Weather View 32 v70,2013-01-03 17:47:00,
2013-01-03 08:52:00,7.3,1.9,29.22,East,83,0.0,0.0,78,0.00,,,0.00,Weather View 32 v70,2013-01-03 17:52:00,
2013-01-03 08:57:00,7.4,2.0,29.22,East,83,0.0,0.0,78,0.00,,,0.00,Weather View 32 v70,2013-01-03 17:57:00,
2013-01-03 09:02:00,7.4,1.7,29.22,East,83,0.0,0.0,77,0.00,,,0.00,Weather View 32 v70,2013-01-03 18:02:00,
2013-01-03 09:07:00,7.5,1.8,29.22,East,83,0.0,0.0,77,0.00,,,0.00,Weather View 32 v70,2013-01-03 18:07:00,
2013-01-03 09:12:00,7.8,2.4,29.23,East,83,0.0,0.0,78,0.00,,,0.00,Weather View 32 v70,2013-01-03 18:12:00,
2013-01-03 09:17:00,7.8,2.4,29.22,East,83,0.0,0.0,78,0.00,,,0.00,Weather View 32 v70,2013-01-03 18:17:00,
2013-01-03 09:22:00,7.9,2.5,29.23,East,83,0.0,0.0,78,0.00,,,0.00,Weather View 32 v70,2013-01-03 18:22:00,
2013-01-03 09:27:00,7.9,2.2,29.23,East,83,0.0,0.0,77,0.00,,,0.00,Weather View 32 v70,2013-01-03 18:27:00,
2013-01-03 09:30:00,7.9,2.5,29.23,East,83,0.0,0.0,78,0.00,,,0.00,Weather View 32 v70,2013-01-03 18:30:00,
2013-01-03 09:32:00,7.8,2.4,29.23,East,83,0.0,0.0,78,0.00,,,0.00,Weather View 32 v70,2013-01-03 18:32:00,
2013-01-03 09:37:00,7.8,2.1,29.23,East,83,0.0,2.0,77,0.00,,,0.00,Weather View 32 v70,2013-01-03 18:37:00,
2013-01-03 09:42:00,7.8,2.1,29.24,East,83,0.0,2.0,77,0.00,,,0.00,Weather View 32 v70,2013-01-03 18:42:00,
2013-01-03 09:47:00,7.8,2.1,29.24,East,83,0.0,2.0,77,0.00,,,0.00,Weather View 32 v70,2013-01-03 18:47:00,
2013-01-03 09:52:00,7.7,1.7,29.24,East,83,0.0,2.0,76,0.00,,,0.00,Weather View 32 v70,2013-01-03 18:52:00,
2013-01-03 09:57:00,7.3,1.3,29.24,East,83,0.0,2.0,76,0.00,,,0.00,Weather View 32 v70,2013-01-03 18:57:00,
2013-01-03 10:02:00,7.1,1.1,29.24,East,83,0.0,2.0,76,0.00,,,0.00,Weather View 32 v70,2013-01-03 19:02:00,
2013-01-03 10:07:00,7.0,1.0,29.24,East,83,0.0,2.0,76,0.00,,,0.00,Weather View 32 v70,2013-01-03 19:07:00,
2013-01-03 10:12:00,6.8,0.6,29.24,East,83,0.0,2.0,75,0.00,,,0.00,Weather View 32 v70,2013-01-03 19:12:00,
2013-01-03 10:17:00,6.5,0.3,29.24,East,83,0.0,2.0,75,0.00,,,0.00,Weather View 32 v70,2013-01-03 19:17:00,
2013-01-03 10:56:00,5.1,-1.4,29.24,East,83,0.0,2.0,74,0.00,,,0.00,Weather View 32 v70,2013-01-03 19:56:00,
2013-01-03 11:01:00,4.8,-1.7,29.25,East,83,0.0,2.0,74,0.00,,,0.00,Weather View 32 v70,2013-01-03 20:01:00,
2013-01-03 11:06:00,4.6,-1.8,29.25,East,83,0.0,2.0,74,0.00,,,0.00,Weather View 32 v70,2013-01-03 20:06:00,
2013-01-03 11:11:00,4.4,-2.0,29.25,East,83,0.0,2.0,74,0.00,,,0.00,Weather View 32 v70,2013-01-03 20:11:00,
2013-01-03 11:16:00,4.3,-2.1,29.25,East,83,0.0,2.0,74,0.00,,,0.00,Weather View 32 v70,2013-01-03 20:16:00,
2013-01-03 11:21:00,4.1,-2.3,29.26,East,83,0.0,2.0,74,0.00,,,0.00,Weather View 32 v70,2013-01-03 20:21:00,
2013-01-03 11:26:00,4.1,-2.0,29.26,East,83,0.0,2.0,75,0.00,,,0.00,Weather View 32 v70,2013-01-03 20:26:00,
2013-01-03 11:30:00,4.1,-2.3,29.26,East,83,0.0,2.0,74,0.00,,,0.00,Weather View 32 v70,2013-01-03 20:30:00,
2013-01-03 11:31:00,4.1,-2.0,29.26,East,83,0.0,2.0,75,0.00,,,0.00,Weather View 32 v70,2013-01-03 20:31:00,
2013-01-03 11:36:00,4.1,-2.0,29.25,East,83,0.0,2.0,75,0.00,,,0.00,Weather View 32 v70,2013-01-03 20:36:00,
2013-01-03 11:41:00,4.2,-2.0,29.25,East,83,0.0,1.0,75,0.00,,,0.00,Weather View 32 v70,2013-01-03 20:41:00,
2013-01-03 11:46:00,4.4,-1.5,29.26,East,83,0.0,1.0,76,0.00,,,0.00,Weather View 32 v70,2013-01-03 20:46:00,
2013-01-03 11:51:00,4.5,-1.4,29.25,East,83,0.0,1.0,76,0.00,,,0.00,Weather View 32 v70,2013-01-03 20:51:00,
2013-01-03 11:56:00,4.5,-1.7,29.26,East,83,0.0,1.0,75,0.00,,,0.00,Weather View 32 v70,2013-01-03 20:56:00,
2013-01-03 12:01:00,4.5,-1.7,29.26,East,83,0.0,1.0,75,0.00,,,0.00,Weather View 32 v70,2013-01-03 21:01:00,
2013-01-03 12:06:00,4.6,-1.6,29.26,East,83,0.0,1.0,75,0.00,,,0.00,Weather View 32 v70,2013-01-03 21:06:00,
2013-01-03 12:11:00,4.7,-1.2,29.26,East,83,0.0,1.0,76,0.00,,,0.00,Weather View 32 v70,2013-01-03 21:11:00,
2013-01-03 12:16:00,4.8,-1.4,29.26,East,83,0.0,1.0,75,0.00,,,0.00,Weather View 32 v70,2013-01-03 21:16:00,
2013-01-03 12:21:00,4.8,-1.4,29.26,East,83,0.0,1.0,75,0.00,,,0.00,Weather View 32 v70,2013-01-03 21:21:00,
2013-01-03 12:26:00,5.0,-0.9,29.26,East,83,0.0,1.0,76,0.00,,,0.00,Weather View 32 v70,2013-01-03 21:26:00,
2013-01-03 12:30:00,4.8,-1.4,29.26,East,83,0.0,1.0,75,0.00,,,0.00,Weather View 32 v70,2013-01-03 21:30:00,
2013-01-03 12:31:00,5.3,-0.6,29.26,East,83,0.0,1.0,76,0.00,,,0.00,Weather View 32 v70,2013-01-03 21:31:00,
2013-01-03 12:36:00,5.5,-0.4,29.26,East,83,0.0,0.0,76,0.00,,,0.00,Weather View 32 v70,2013-01-03 21:36:00,
2013-01-03 12:44:00,5.9,0.3,29.26,East,83,0.0,0.0,77,0.00,,,0.00,Weather View 32 v70,2013-01-03 21:44:00,
2013-01-03 12:49:00,6.1,0.4,29.26,East,83,0.0,0.0,77,0.00,,,0.00,Weather View 32 v70,2013-01-03 21:49:00,
2013-01-03 12:54:00,6.4,0.7,29.27,East,83,0.0,0.0,77,0.00,,,0.00,Weather View 32 v70,2013-01-03 21:54:00,
2013-01-03 12:59:00,6.5,0.8,29.26,East,83,0.0,0.0,77,0.00,,,0.00,Weather View 32 v70,2013-01-03 21:59:00,
2013-01-03 13:04:00,6.6,0.9,29.26,East,83,0.0,0.0,77,0.00,,,0.00,Weather View 32 v70,2013-01-03 22:04:00,
2013-01-03 13:09:00,6.7,1.0,29.27,East,83,0.0,0.0,77,0.00,,,0.00,Weather View 32 v70,2013-01-03 22:09:00,
2013-01-03 13:14:00,6.8,0.9,29.27,East,83,0.0,0.0,76,0.00,,,0.00,Weather View 32 v70,2013-01-03 22:14:00,
2013-01-03 13:19:00,6.8,0.9,29.27,East,83,0.0,0.0,76,0.00,,,0.00,Weather View 32 v70,2013-01-03 22:19:00,
2013-01-03 13:24:00,6.9,1.2,29.27,East,83,0.0,0.0,77,0.00,,,0.00,Weather View 32 v70,2013-01-03 22:24:00,
2013-01-03 13:29:00,6.8,0.9,29.27,East,83,0.0,0.0,76,0.00,,,0.00,Weather View 32 v70,2013-01-03 22:29:00,
2013-01-03 13:30:00,6.8,1.1,29.27,East,83,0.0,0.0,77,0.00,,,0.00,Weather View 32 v70,2013-01-03 22:30:00,
2013-01-03 13:34:00,6.9,0.9,29.27,East,83,0.0,0.0,76,0.00,,,0.00,Weather View 32 v70,2013-01-03 22:34:00,
2013-01-03 13:39:00,6.8,0.9,29.27,East,83,0.0,0.0,76,0.00,,,0.00,Weather View 32 v70,2013-01-03 22:39:00,
2013-01-03 13:44:00,6.7,0.8,29.27,East,83,0.0,0.0,76,0.00,,,0.00,Weather View 32 v70,2013-01-03 22:44:00,
2013-01-03 13:49:00,6.8,0.9,29.27,East,83,0.0,0.0,76,0.00,,,0.00,Weather View 32 v70,2013-01-03 22:49:00,
2013-01-03 13:54:00,6.8,0.9,29.27,East,83,0.0,0.0,76,0.00,,,0.00,Weather View 32 v70,2013-01-03 22:54:00,
2013-01-03 13:59:00,6.9,0.9,29.27,East,83,0.0,0.0,76,0.00,,,0.00,Weather View 32 v70,2013-01-03 22:59:00,
2013-01-03 14:04:00,6.9,0.9,29.27,East,83,0.0,0.0,76,0.00,,,0.00,Weather View 32 v70,2013-01-03 23:04:00,
2013-01-03 14:09:00,6.8,0.9,29.27,East,83,0.0,0.0,76,0.00,,,0.00,Weather View 32 v70,2013-01-03 23:09:00,
2013-01-03 14:14:00,6.8,0.9,29.27,East,83,0.0,0.0,76,0.00,,,0.00,Weather View 32 v70,2013-01-03 23:14:00,
2013-01-03 14:19:00,6.7,0.8,29.27,East,83,0.0,0.0,76,0.00,,,0.00,Weather View 32 v70,2013-01-03 23:19:00,
2013-01-03 14:24:00,6.7,0.8,29.27,East,83,0.0,0.0,76,0.00,,,0.00,Weather View 32 v70,2013-01-03 23:24:00,
2013-01-03 14:29:00,6.6,0.7,29.27,East,83,0.0,0.0,76,0.00,,,0.00,Weather View 32 v70,2013-01-03 23:29:00,
2013-01-03 14:30:00,6.7,0.8,29.27,East,83,0.0,0.0,76,0.00,,,0.00,Weather View 32 v70,2013-01-03 23:30:00,
2013-01-03 14:34:00,6.6,0.7,29.27,East,83,0.0,0.0,76,0.00,,,0.00,Weather View 32 v70,2013-01-03 23:34:00,
2013-01-03 14:39:00,6.5,0.6,29.27,East,83,0.0,0.0,76,0.00,,,0.00,Weather View 32 v70,2013-01-03 23:39:00,
2013-01-03 14:44:00,6.4,0.5,29.27,East,83,0.0,0.0,76,0.00,,,0.00,Weather View 32 v70,2013-01-03 23:44:00,
2013-01-03 14:49:00,6.3,0.4,29.27,East,83,0.0,0.0,76,0.00,,,0.00,Weather View 32 v70,2013-01-03 23:49:00,
2013-01-03 14:54:00,6.1,-0.1,29.27,East,83,0.0,0.0,75,0.00,,,0.00,Weather View 32 v70,2013-01-03 23:54:00,
2013-01-03 14:59:00,6.0,-0.2,29.27,East,83,0.0,0.0,75,0.00,,,0.00,Weather View 32 v70,2013-01-03 23:59:00,
2013-01-03 15:04:00,6.0,0.1,29.27,East,83,0.0,0.0,76,0.00,,,0.00,Weather View 32 v70,2013-01-04 00:04:00,
2013-01-03 15:09:00,6.0,0.1,29.27,East,83,0.0,0.0,76,0.00,,,0.00,Weather View 32 v70,2013-01-04 00:09:00,
2013-01-03 15:14:00,5.9,-0.3,29.26,East,83,0.0,0.0,75,0.00,,,0.00,Weather View 32 v70,2013-01-04 00:14:00,
2013-01-03 15:19:00,5.7,-0.5,29.26,East,83,0.0,0.0,75,0.00,,,0.00,Weather View 32 v70,2013-01-04 00:19:00,
2013-01-03 15:24:00,5.7,-0.5,29.26,East,83,0.0,0.0,75,0.00,,,0.00,Weather View 32 v70,2013-01-04 00:24:00,
2013-01-03 15:29:00,5.5,-0.7,29.26,East,83,0.0,0.0,75,0.00,,,0.00,Weather View 32 v70,2013-01-04 00:29:00,
2013-01-03 15:30:00,5.7,-0.5,29.26,East,83,0.0,0.0,75,0.00,,,0.00,Weather View 32 v70,2013-01-04 00:30:00,
2013-01-03 15:34:00,5.3,-0.9,29.26,East,83,0.0,0.0,75,0.00,,,0.00,Weather View 32 v70,2013-01-04 00:34:00,
2013-01-03 15:39:00,5.2,-1.0,29.27,East,83,0.0,0.0,75,0.00,,,0.00,Weather View 32 v70,2013-01-04 00:39:00,
2013-01-03 15:44:00,5.1,-1.1,29.27,East,83,0.0,0.0,75,0.00,,,0.00,Weather View 32 v70,2013-01-04 00:44:00,
2013-01-03 15:49:00,5.1,-1.1,29.27,East,83,0.0,0.0,75,0.00,,,0.00,Weather View 32 v70,2013-01-04 00:49:00,
2013-01-03 15:54:00,5.0,-1.2,29.27,East,83,0.0,0.0,75,0.00,,,0.00,Weather View 32 v70,2013-01-04 00:54:00,
2013-01-03 15:59:00,4.9,-1.3,29.27,East,83,0.0,0.0,75,0.00,,,0.00,Weather View 32 v70,2013-01-04 00:59:00,
2013-01-03 16:04:00,4.8,-1.4,29.26,East,83,0.0,0.0,75,0.00,,,0.00,Weather View 32 v70,2013-01-04 01:04:00,
2013-01-03 16:09:00,4.7,-1.5,29.26,East,83,0.0,0.0,75,0.00,,,0.00,Weather View 32 v70,2013-01-04 01:09:00,
2013-01-03 16:14:00,4.6,-1.6,29.26,East,83,0.0,0.0,75,0.00,,,0.00,Weather View 32 v70,2013-01-04 01:14:00,
2013-01-03 16:19:00,4.5,-1.9,29.26,East,83,0.0,0.0,74,0.00,,,0.00,Weather View 32 v70,2013-01-04 01:19:00,
2013-01-03 16:24:00,4.6,-1.6,29.26,East,83,0.0,0.0,75,0.00,,,0.00,Weather View 32 v70,2013-01-04 01:24:00,
2013-01-03 16:29:00,4.6,-1.6,29.27,East,83,0.0,0.0,75,0.00,,,0.00,Weather View 32 v70,2013-01-04 01:29:00,
2013-01-03 16:30:00,4.6,-1.6,29.26,East,83,0.0,0.0,75,0.00,,,0.00,Weather View 32 v70,2013-01-04 01:30:00,
2013-01-03 16:34:00,4.6,-1.6,29.26,East,83,1.0,1.0,75,0.00,,,0.00,Weather View 32 v70,2013-01-04 01:34:00,
2013-01-03 16:39:00,4.7,-1.2,29.26,East,83,0.0,1.0,76,0.00,,,0.00,Weather View 32 v70,2013-01-04 01:39:00,
2013-01-03 16:44:00,4.9,-1.0,29.26,East,83,0.0,1.0,76,0.00,,,0.00,Weather View 32 v70,2013-01-04 01:44:00,
2013-01-03 16:49:00,4.9,-1.0,29.27,East,83,0.0,1.0,76,0.00,,,0.00,Weather View 32 v70,2013-01-04 01:49:00,
2013-01-03 16:54:00,5.0,-0.9,29.27,East,83,0.0,1.0,76,0.00,,,0.00,Weather View 32 v70,2013-01-04 01:54:00,
2013-01-03 16:59:00,5.1,-0.8,29.27,East,83,0.0,1.0,76,0.00,,,0.00,Weather View 32 v70,2013-01-04 01:59:00,
2013-01-03 17:04:00,5.0,-0.9,29.27,East,83,0.0,1.0,76,0.00,,,0.00,Weather View 32 v70,2013-01-04 02:04:00,
2013-01-03 17:09:00,4.9,-1.3,29.27,East,83,0.0,1.0,75,0.00,,,0.00,Weather View 32 v70,2013-01-04 02:09:00,
2013-01-03 17:14:00,4.8,-1.1,29.27,East,83,0.0,1.0,76,0.00,,,0.00,Weather View 32 v70,2013-01-04 02:14:00,
2013-01-03 17:19:00,4.9,-1.0,29.27,East,83,0.0,1.0,76,0.00,,,0.00,Weather View 32 v70,2013-01-04 02:19:00,
2013-01-03 17:24:00,5.0,-0.9,29.27,East,83,0.0,1.0,76,0.00,,,0.00,Weather View 32 v70,2013-01-04 02:24:00,
2013-01-03 17:29:00,4.9,-1.0,29.26,East,83,0.0,1.0,76,0.00,,,0.00,Weather View 32 v70,2013-01-04 02:29:00,
2013-01-03 17:30:00,4.9,-1.0,29.27,East,83,0.0,1.0,76,0.00,,,0.00,Weather View 32 v70,2013-01-04 02:30:00,
2013-01-03 17:34:00,4.8,-1.4,29.27,East,83,0.0,1.0,75,0.00,,,0.00,Weather View 32 v70,2013-01-04 02:34:00,
2013-01-03 17:39:00,4.7,-1.5,29.26,East,83,0.0,1.0,75,0.00,,,0.00,Weather View 32 v70,2013-01-04 02:39:00,
2013-01-03 17:44:00,4.6,-1.6,29.26,East,83,0.0,1.0,75,0.00,,,0.00,Weather View 32 v70,2013-01-04 02:44:00,
2013-01-03 17:49:00,4.4,-1.8,29.26,East,83,0.0,1.0,75,0.00,,,0.00,Weather View 32 v70,2013-01-04 02:49:00,
2013-01-03 17:54:00,4.4,-1.8,29.26,East,83,0.0,0.0,75,0.00,,,0.00,Weather View 32 v70,2013-01-04 02:54:00,
2013-01-03 17:59:00,4.3,-1.9,29.26,East,83,0.0,0.0,75,0.00,,,0.00,Weather View 32 v70,2013-01-04 02:59:00,
2013-01-03 18:04:00,4.2,-2.0,29.26,East,83,0.0,0.0,75,0.00,,,0.00,Weather View 32 v70,2013-01-04 03:04:00,
2013-01-03 18:09:00,4.2,-2.0,29.26,East,83,0.0,1.0,75,0.00,,,0.00,Weather View 32 v70,2013-01-04 03:09:00,
2013-01-03 18:14:00,4.1,-2.0,29.26,East,83,1.0,1.0,75,0.00,,,0.00,Weather View 32 v70,2013-01-04 03:14:00,
2013-01-03 18:19:00,4.3,-1.9,29.26,East,83,0.0,2.0,75,0.00,,,0.00,Weather View 32 v70,2013-01-04 03:19:00,
2013-01-03 18:24:00,4.3,-1.9,29.26,East,83,0.0,2.0,75,0.00,,,0.00,Weather View 32 v70,2013-01-04 03:24:00,
2013-01-03 18:29:00,4.2,-2.0,29.26,East,83,0.0,2.0,75,0.00,,,0.00,Weather View 32 v70,2013-01-04 03:29:00,
2013-01-03 18:30:00,4.3,-1.9,29.26,East,83,0.0,2.0,75,0.00,,,0.00,Weather View 32 v70,2013-01-04 03:30:00,
2013-01-03 18:34:00,4.2,-2.0,29.26,East,83,0.0,2.0,75,0.00,,,0.00,Weather View 32 v70,2013-01-04 03:34:00,
2013-01-03 18:39:00,4.2,-2.0,29.26,East,83,0.0,2.0,75,0.00,,,0.00,Weather View 32 v70,2013-01-04 03:39:00,
2013-01-03 18:44:00,4.1,-2.0,29.25,East,83,0.0,2.0,75,0.00,,,0.00,Weather View 32 v70,2013-01-04 03:44:00,
2013-01-03 18:49:00,4.1,-2.0,29.26,East,83,0.0,2.0,75,0.00,,,0.00,Weather View 32 v70,2013-01-04 03:49:00,
2013-01-03 18:54:00,4.2,-2.0,29.25,East,83,1.0,2.0,75,0.00,,,0.00,Weather View 32 v70,2013-01-04 03:54:00,
2013-01-03 18:59:00,4.3,-1.9,29.25,East,83,0.0,2.0,75,0.00,,,0.00,Weather View 32 v70,2013-01-04 03:59:00,
2013-01-03 19:04:00,4.2,-2.0,29.26,East,83,0.0,2.0,75,0.00,,,0.00,Weather View 32 v70,2013-01-04 04:04:00,
2013-01-03 19:09:00,4.1,-2.0,29.26,East,83,0.0,2.0,75,0.00,,,0.00,Weather View 32 v70,2013-01-04 04:09:00,
2013-01-03 19:14:00,4.0,-2.1,29.26,East,83,0.0,2.0,75,0.00,,,0.00,Weather View 32 v70,2013-01-04 04:14:00,
2013-01-03 19:19:00,3.9,-2.5,29.26,East,83,0.0,2.0,74,0.00,,,0.00,Weather View 32 v70,2013-01-04 04:19:00,
2013-01-03 19:24:00,3.8,-2.6,29.25,East,83,0.0,2.0,74,0.00,,,0.00,Weather View 32 v70,2013-01-04 04:24:00,
2013-01-03 19:29:00,3.7,-2.7,29.25,East,83,0.0,2.0,74,0.00,,,0.00,Weather View 32 v70,2013-01-04 04:29:00,
2013-01-03 19:30:00,3.8,-2.6,29.26,East,83,0.0,2.0,74,0.00,,,0.00,Weather View 32 v70,2013-01-04 04:30:00,
2013-01-03 19:34:00,3.7,-2.7,29.25,East,83,0.0,2.0,74,0.00,,,0.00,Weather View 32 v70,2013-01-04 04:34:00,
2013-01-03 19:39:00,3.7,-2.4,29.25,East,83,0.0,2.0,75,0.00,,,0.00,Weather View 32 v70,2013-01-04 04:39:00,
2013-01-03 19:44:00,3.7,-2.4,29.25,East,83,0.0,2.0,75,0.00,,,0.00,Weather View 32 v70,2013-01-04 04:44:00,
2013-01-03 19:49:00,3.8,-2.3,29.25,East,83,0.0,2.0,75,0.00,,,0.00,Weather View 32 v70,2013-01-04 04:49:00,
2013-01-03 19:54:00,3.7,-2.4,29.25,East,83,0.0,2.0,75,0.00,,,0.00,Weather View 32 v70,2013-01-04 04:54:00,
2013-01-03 19:59:00,3.7,-2.4,29.25,East,83,0.0,1.0,75,0.00,,,0.00,Weather View 32 v70,2013-01-04 04:59:00,
2013-01-03 20:02:00,3.8,-2.3,29.25,East,83,0.0,0.0,75,0.00,,,0.00,Weather View 32 v70,2013-01-04 05:02:00,
2013-01-03 20:03:00,3.8,-2.3,29.25,East,83,0.0,0.0,75,0.00,,,0.00,Weather View 32 v70,2013-01-04 05:03:00,
2013-01-03 20:08:00,3.7,-2.4,29.25,East,83,0.0,0.0,75,0.00,,,0.00,Weather View 32 v70,2013-01-04 05:08:00,
2013-01-03 20:13:00,3.6,-2.8,29.25,East,83,0.0,0.0,74,0.00,,,0.00,Weather View 32 v70,2013-01-04 05:13:00,
2013-01-03 20:18:00,3.6,-2.8,29.25,East,83,0.0,0.0,74,0.00,,,0.00,Weather View 32 v70,2013-01-04 05:18:00,
2013-01-03 20:23:00,3.6,-2.8,29.25,East,83,0.0,0.0,74,0.00,,,0.00,Weather View 32 v70,2013-01-04 05:23:00,
2013-01-03 20:28:00,3.5,-2.9,29.25,East,83,0.0,0.0,74,0.00,,,0.00,Weather View 32 v70,2013-01-04 05:28:00,
2013-01-03 20:30:00,3.6,-2.8,29.25,East,83,0.0,0.0,74,0.00,,,0.00,Weather View 32 v70,2013-01-04 05:30:00,
2013-01-03 20:33:00,3.6,-2.8,29.24,East,83,0.0,0.0,74,0.00,,,0.00,Weather View 32 v70,2013-01-04 05:33:00,
2013-01-03 20:38:00,3.5,-2.6,29.25,East,83,0.0,0.0,75,0.00,,,0.00,Weather View 32 v70,2013-01-04 05:38:00,
2013-01-03 20:43:00,3.6,-2.5,29.25,East,83,1.0,1.0,75,0.00,,,0.00,Weather View 32 v70,2013-01-04 05:43:00,
2013-01-03 20:48:00,3.6,-2.5,29.25,East,83,0.0,1.0,75,0.00,,,0.00,Weather View 32 v70,2013-01-04 05:48:00,
2013-01-03 20:53:00,3.6,-2.5,29.25,East,83,0.0,1.0,75,0.00,,,0.00,Weather View 32 v70,2013-01-04 05:53:00,
2013-01-03 20:58:00,3.6,-2.5,29.25,East,83,0.0,2.0,75,0.00,,,0.00,Weather View 32 v70,2013-01-04 05:58:00,
2013-01-03 21:03:00,3.6,-2.5,29.25,East,83,0.0,2.0,75,0.00,,,0.00,Weather View 32 v70,2013-01-04 06:03:00,
2013-01-03 21:08:00,3.7,-2.4,29.25,East,83,0.0,2.0,75,0.00,,,0.00,Weather View 32 v70,2013-01-04 06:08:00,
2013-01-03 21:13:00,3.7,-2.4,29.25,East,83,0.0,2.0,75,0.00,,,0.00,Weather View 32 v70,2013-01-04 06:13:00,
2013-01-03 21:18:00,3.8,-2.3,29.25,East,83,0.0,2.0,75,0.00,,,0.00,Weather View 32 v70,2013-01-04 06:18:00,
2013-01-03 21:23:00,4.0,-2.1,29.25,East,83,0.0,2.0,75,0.00,,,0.00,Weather View 32 v70,2013-01-04 06:23:00,
2013-01-03 21:28:00,4.1,-2.0,29.25,East,83,0.0,2.0,75,0.00,,,0.00,Weather View 32 v70,2013-01-04 06:28:00,
2013-01-03 21:30:00,4.0,-2.1,29.25,East,83,0.0,2.0,75,0.00,,,0.00,Weather View 32 v70,2013-01-04 06:30:00,
2013-01-03 21:33:00,4.2,-2.0,29.25,East,83,0.0,2.0,75,0.00,,,0.00,Weather View 32 v70,2013-01-04 06:33:00,
2013-01-03 21:38:00,4.3,-1.6,29.25,East,83,0.0,2.0,76,0.00,,,0.00,Weather View 32 v70,2013-01-04 06:38:00,
2013-01-03 21:43:00,4.5,-1.4,29.25,East,83,0.0,2.0,76,0.00,,,0.00,Weather View 32 v70,2013-01-04 06:43:00,
2013-01-03 21:48:00,4.7,-1.2,29.25,East,83,0.0,2.0,76,0.00,,,0.00,Weather View 32 v70,2013-01-04 06:48:00,
2013-01-03 21:53:00,4.8,-1.1,29.25,East,83,0.0,2.0,76,0.00,,,0.00,Weather View 32 v70,2013-01-04 06:53:00,
2013-01-03 21:58:00,4.9,-1.0,29.25,East,83,0.0,2.0,76,0.00,,,0.00,Weather View 32 v70,2013-01-04 06:58:00,
2013-01-03 22:03:00,5.1,-0.5,29.25,East,83,0.0,0.0,77,0.00,,,0.00,Weather View 32 v70,2013-01-04 07:03:00,
2013-01-03 22:08:00,5.4,-0.2,29.25,East,83,0.0,0.0,77,0.00,,,0.00,Weather View 32 v70,2013-01-04 07:08:00,
2013-01-03 22:13:00,5.5,-0.1,29.25,East,83,0.0,0.0,77,0.00,,,0.00,Weather View 32 v70,2013-01-04 07:13:00,
2013-01-03 22:18:00,5.5,-0.4,29.25,East,83,0.0,0.0,76,0.00,,,0.00,Weather View 32 v70,2013-01-04 07:18:00,
2013-01-03 22:23:00,5.6,-0.3,29.25,East,83,0.0,0.0,76,0.00,,,0.00,Weather View 32 v70,2013-01-04 07:23:00,
2013-01-03 22:28:00,5.6,-0.3,29.25,East,83,0.0,0.0,76,0.00,,,0.00,Weather View 32 v70,2013-01-04 07:28:00,
2013-01-03 22:30:00,5.6,-0.3,29.25,East,83,0.0,0.0,76,0.00,,,0.00,Weather View 32 v70,2013-01-04 07:30:00,
2013-01-03 22:33:00,5.7,-0.2,29.25,East,83,0.0,0.0,76,0.00,,,0.00,Weather View 32 v70,2013-01-04 07:33:00,
2013-01-03 22:38:00,5.8,-0.1,29.25,East,83,0.0,0.0,76,0.00,,,0.00,Weather View 32 v70,2013-01-04 07:38:00,
2013-01-03 22:43:00,5.9,0.0,29.26,East,83,0.0,0.0,76,0.00,,,0.00,Weather View 32 v70,2013-01-04 07:43:00,
2013-01-03 22:48:00,5.9,0.0,29.25,East,83,0.0,0.0,76,0.00,,,0.00,Weather View 32 v70,2013-01-04 07:48:00,
2013-01-03 22:53:00,6.0,0.1,29.25,East,83,0.0,0.0,76,0.00,,,0.00,Weather View 32 v70,2013-01-04 07:53:00,
2013-01-03 22:58:00,6.2,0.5,29.25,East,83,0.0,0.0,77,0.00,,,0.00,Weather View 32 v70,2013-01-04 07:58:00,
2013-01-03 23:03:00,6.4,0.7,29.25,East,83,0.0,0.0,77,0.00,,,0.00,Weather View 32 v70,2013-01-04 08:03:00,
2013-01-03 23:08:00,6.5,0.8,29.25,East,83,0.0,0.0,77,0.00,,,0.00,Weather View 32 v70,2013-01-04 08:08:00,
2013-01-03 23:13:00,6.7,1.0,29.25,East,83,0.0,0.0,77,0.00,,,0.00,Weather View 32 v70,2013-01-04 08:13:00,
2013-01-03 23:18:00,6.8,1.1,29.25,East,83,0.0,0.0,77,0.00,,,0.00,Weather View 32 v70,2013-01-04 08:18:00,
2013-01-03 23:23:00,6.9,1.2,29.26,East,83,0.0,1.0,77,0.00,,,0.00,Weather View 32 v70,2013-01-04 08:23:00,
2013-01-03 23:28:00,6.9,1.2,29.26,East,83,0.0,1.0,77,0.00,,,0.00,Weather View 32 v70,2013-01-04 08:28:00,
2013-01-03 23:30:00,6.9,1.2,29.26,East,83,0.0,1.0,77,0.00,,,0.00,Weather View 32 v70,2013-01-04 08:30:00,
2013-01-03 23:33:00,6.9,1.2,29.25,East,83,0.0,1.0,77,0.00,,,0.00,Weather View 32 v70,2013-01-04 08:33:00,
2013-01-03 23:38:00,6.9,1.2,29.25,East,83,0.0,1.0,77,0.00,,,0.00,Weather View 32 v70,2013-01-04 08:38:00,
2013-01-03 23:43:00,6.9,0.9,29.26,East,83,0.0,1.0,76,0.00,,,0.00,Weather View 32 v70,2013-01-04 08:43:00,
2013-01-03 23:48:00,6.9,1.2,29.26,East,83,0.0,1.0,77,0.00,,,0.00,Weather View 32 v70,2013-01-04 08:48:00,
2013-01-03 23:53:00,6.9,1.2,29.26,East,83,0.0,1.0,77,0.00,,,0.00,Weather View 32 v70,2013-01-04 08:53:00,
2013-01-03 23:58:00,6.9,1.2,29.25,East,83,0.0,1.0,77,0.00,,,0.00,Weather View 32 v70,2013-01-04 08:58:00,